| time (UTC) | temp F | wind direction | speed MPH | gust MPH | rain 1hr in | rain 24hr in | rain mn in | humidity % | barometer mb |
| 20260509223047 | 71 | 9 | 0.0 | 0.0 | 0.00 | 0.12 | 0.04 | 86 | 1010.6 |
| 20260509223031 | 71 | 0 | 0.0 | 0.0 | 0.00 | 0.12 | 0.04 | 85 | 1011.5 |
| 20260509221544 | 71 | 9 | 0.0 | 0.0 | 0.00 | 0.12 | 0.04 | 86 | 1010.4 |
| 20260509221530 | 71 | 0 | 0.0 | 0.0 | 0.00 | 0.12 | 0.04 | 85 | 1011.2 |
| 20260509220048 | 71 | 9 | 0.0 | 0.0 | 0.00 | 0.12 | 0.04 | 85 | 1010.8 |
| 20260509220030 | 71 | 0 | 0.0 | 0.0 | 0.00 | 0.12 | 0.04 | 84 | 1011.6 |
| 20260509214546 | 71 | 9 | 0.0 | 1.0 | 0.00 | 0.12 | 0.04 | 84 | 1010.7 |
| 20260509214531 | 71 | 0 | 0.0 | 1.0 | 0.00 | 0.12 | 0.04 | 84 | 1011.6 |
| 20260509213053 | 71 | 9 | 0.0 | 3.0 | 0.00 | 0.12 | 0.04 | 84 | 1011.0 |
| 20260509213030 | 71 | 0 | 0.0 | 3.0 | 0.00 | 0.12 | 0.04 | 83 | 1012.0 |
| 20260509211543 | 72 | 9 | 0.0 | 4.0 | 0.00 | 0.12 | 0.04 | 83 | 1011.3 |
| 20260509211528 | 72 | 0 | 1.0 | 4.0 | 0.00 | 0.12 | 0.04 | 82 | 1012.2 |
| 20260509210048 | 72 | 9 | 1.0 | 5.0 | 0.00 | 0.12 | 0.04 | 82 | 1010.9 |
| 20260509210030 | 72 | 9 | 0.0 | 5.0 | 0.00 | 0.12 | 0.04 | 82 | 1011.8 |
| 20260509204541 | 72 | 9 | 1.0 | 3.0 | 0.00 | 0.12 | 0.04 | 82 | 1010.9 |
| 20260509204530 | 72 | 9 | 1.0 | 3.0 | 0.00 | 0.12 | 0.04 | 81 | 1011.7 |
| 20260509203041 | 72 | 9 | 3.0 | 6.0 | 0.00 | 0.12 | 0.04 | 81 | 1011.0 |
| 20260509203039 | 72 | 9 | 2.0 | 7.0 | 0.00 | 0.12 | 0.04 | 81 | 1011.9 |
| 20260509201541 | 73 | 9 | 3.0 | 6.0 | 0.00 | 0.12 | 0.04 | 80 | 1011.0 |
| 20260509201530 | 73 | 9 | 3.0 | 7.0 | 0.00 | 0.12 | 0.04 | 80 | 1011.8 |
| 20260509200047 | 73 | 9 | 2.0 | 5.0 | 0.01 | 0.12 | 0.04 | 79 | 1010.9 |
| 20260509200029 | 73 | 9 | 2.0 | 5.0 | 0.01 | 0.12 | 0.04 | 78 | 1011.8 |
| 20260509194552 | 74 | 9 | 1.0 | 5.0 | 0.01 | 0.12 | 0.04 | 78 | 1011.0 |
| 20260509194531 | 74 | 9 | 2.0 | 5.0 | 0.01 | 0.12 | 0.04 | 78 | 1011.9 |
| 20260509193040 | 73 | 11 | 0.0 | 1.0 | 0.01 | 0.12 | 0.04 | 78 | 1010.5 |
| 20260509193037 | 73 | 0 | 0.0 | 1.0 | 0.01 | 0.12 | 0.04 | 77 | 1011.4 |
| 20260509191538 | 74 | 13 | 0.0 | 3.0 | 0.01 | 0.12 | 0.04 | 79 | 1010.5 |
| 20260509190040 | 75 | 13 | 0.0 | 1.0 | 0.00 | 0.11 | 0.03 | 77 | 1010.9 |
| 20260509190029 | 75 | 0 | 0.0 | 1.0 | 0.00 | 0.11 | 0.03 | 77 | 1011.8 |
| 20260509184538 | 76 | 0 | 0.0 | 1.0 | 0.00 | 0.11 | 0.03 | 74 | 1011.9 |
| 20260509183036 | 77 | 14 | 0.0 | 2.0 | 0.00 | 0.11 | 0.03 | 73 | 1011.1 |
| 20260509183032 | 77 | 0 | 0.0 | 2.0 | 0.00 | 0.11 | 0.03 | 72 | 1012.0 |
| 20260509181537 | 77 | 19 | 0.0 | 3.0 | 0.00 | 0.11 | 0.03 | 70 | 1011.3 |
| 20260509181529 | 77 | 0 | 0.0 | 3.0 | 0.00 | 0.11 | 0.03 | 70 | 1012.1 |
| 20260509180049 | 77 | 9 | 0.0 | 4.0 | 0.00 | 0.11 | 0.03 | 69 | 1011.3 |
| 20260509180032 | 77 | 0 | 0.0 | 4.0 | 0.00 | 0.11 | 0.03 | 69 | 1012.2 |
| 20260509174537 | 78 | 9 | 1.0 | 4.0 | 0.00 | 0.11 | 0.03 | 69 | 1011.3 |
| 20260509174531 | 78 | 9 | 1.0 | 4.0 | 0.00 | 0.11 | 0.03 | 68 | 1012.2 |
| 20260509173051 | 79 | 9 | 1.0 | 3.0 | 0.00 | 0.11 | 0.03 | 67 | 1011.3 |
| 20260509173029 | 79 | 0 | 0.0 | 3.0 | 0.00 | 0.11 | 0.03 | 66 | 1012.2 |
| 20260509171634 | 79 | 9 | 0.0 | 3.0 | 0.00 | 0.11 | 0.03 | 67 | 1011.4 |
| 20260509171531 | 79 | 9 | 0.0 | 3.0 | 0.00 | 0.11 | 0.03 | 67 | 1012.1 |
| 20260509170037 | 79 | 0 | 0.0 | 2.0 | 0.00 | 0.11 | 0.03 | 66 | 1012.3 |
| 20260509170034 | 79 | 11 | 0.0 | 2.0 | 0.00 | 0.11 | 0.03 | 66 | 1011.4 |
| 20260509164536 | 80 | 0 | 0.0 | 3.0 | 0.00 | 0.11 | 0.03 | 70 | 1012.4 |
| 20260509164531 | 80 | 12 | 0.0 | 3.0 | 0.00 | 0.11 | 0.03 | 70 | 1011.6 |
| 20260509163033 | 79 | 0 | 0.0 | 5.0 | 0.00 | 0.11 | 0.03 | 70 | 1012.5 |
| 20260509161534 | 78 | 9 | 0.0 | 2.0 | 0.00 | 0.11 | 0.03 | 76 | 1012.6 |
| 20260509161527 | 78 | 9 | 1.0 | 2.0 | 0.00 | 0.11 | 0.03 | 76 | 1011.8 |
| 20260509160036 | 76 | 13 | 0.0 | 4.0 | 0.00 | 0.11 | 0.03 | 77 | 1012.7 |
| 20260509160024 | 76 | 13 | 0.0 | 4.0 | 0.00 | 0.11 | 0.03 | 78 | 1011.8 |
| 20260509154528 | 75 | 0 | 0.0 | 0.0 | 0.00 | 0.11 | 0.03 | 80 | 1012.9 |
| 20260509154519 | 75 | 16 | 0.0 | 0.0 | 0.00 | 0.11 | 0.03 | 80 | 1012.1 |
| 20260509153038 | 74 | 0 | 0.0 | 1.0 | 0.00 | 0.11 | 0.03 | 81 | 1012.9 |
| 20260509153029 | 74 | 17 | 0.0 | 1.0 | 0.00 | 0.11 | 0.03 | 81 | 1012.2 |
| 20260509151530 | 73 | 0 | 0.0 | 3.0 | 0.00 | 0.11 | 0.03 | 83 | 1013.0 |
| 20260509151513 | 73 | 35 | 0.0 | 3.0 | 0.00 | 0.11 | 0.03 | 83 | 1012.2 |
| 20260509150031 | 73 | 0 | 0.0 | 1.0 | 0.00 | 0.11 | 0.03 | 84 | 1013.1 |
| 20260509150015 | 73 | 36 | 0.0 | 1.0 | 0.00 | 0.11 | 0.03 | 84 | 1012.4 |
| 20260509144532 | 72 | 24 | 0.0 | 3.0 | 0.00 | 0.11 | 0.03 | 84 | 1013.1 |
| 20260509144510 | 72 | 24 | 0.0 | 2.0 | 0.00 | 0.11 | 0.03 | 85 | 1012.4 |
| 20260509143031 | 72 | 0 | 0.0 | 1.0 | 0.00 | 0.11 | 0.03 | 89 | 1013.3 |
| 20260509143009 | 72 | 16 | 0.0 | 1.0 | 0.00 | 0.11 | 0.03 | 89 | 1012.5 |
| 20260509141531 | 71 | 0 | 0.0 | 2.0 | 0.00 | 0.11 | 0.03 | 91 | 1013.0 |
| 20260509141506 | 71 | 16 | 0.0 | 2.0 | 0.00 | 0.11 | 0.03 | 91 | 1012.2 |
| 20260509140032 | 71 | 0 | 0.0 | 2.0 | 0.00 | 0.11 | 0.03 | 93 | 1013.0 |
| 20260509140006 | 71 | 35 | 0.0 | 2.0 | 0.00 | 0.11 | 0.03 | 93 | 1012.1 |
| 20260509134531 | 71 | 0 | 0.0 | 0.0 | 0.00 | 0.11 | 0.03 | 94 | 1013.0 |
| 20260509134505 | 71 | 32 | 0.0 | 0.0 | 0.00 | 0.11 | 0.03 | 95 | 1012.1 |
| 20260509133100 | 70 | 24 | 0.0 | 0.0 | 0.00 | 0.11 | 0.03 | 95 | 1012.1 |
| 20260509133029 | 70 | 0 | 0.0 | 0.0 | 0.00 | 0.11 | 0.03 | 94 | 1013.0 |
| 20260509131600 | 70 | 45 | 0.0 | 0.0 | 0.00 | 0.11 | 0.03 | 95 | 1012.1 |
| 20260509131534 | 70 | 0 | 0.0 | 0.0 | 0.00 | 0.11 | 0.03 | 95 | 1012.9 |
| 20260509130059 | 70 | 38 | 0.0 | 0.0 | 0.00 | 0.11 | 0.03 | 95 | 1012.4 |
| 20260509130032 | 70 | 0 | 0.0 | 0.0 | 0.00 | 0.11 | 0.03 | 95 | 1013.2 |
| 20260509124558 | 70 | 60 | 0.0 | 0.0 | 0.00 | 0.11 | 0.03 | 95 | 1012.2 |
| 20260509124530 | 70 | 0 | 0.0 | 0.0 | 0.00 | 0.11 | 0.03 | 95 | 1013.1 |
| 20260509123058 | 70 | 54 | 0.0 | 0.0 | 0.00 | 0.11 | 0.03 | 96 | 1012.0 |
| 20260509123029 | 70 | 0 | 0.0 | 0.0 | 0.00 | 0.11 | 0.03 | 95 | 1012.7 |
| 20260509121558 | 69 | 42 | 0.0 | 4.0 | 0.00 | 0.11 | 0.03 | 96 | 1011.6 |
| 20260509121531 | 69 | 0 | 0.0 | 3.0 | 0.00 | 0.11 | 0.03 | 95 | 1012.4 |
| 20260509120055 | 68 | 17 | 0.0 | 0.0 | 0.00 | 0.11 | 0.03 | 95 | 1011.7 |
| 20260509120036 | 68 | 0 | 0.0 | 0.0 | 0.00 | 0.11 | 0.03 | 94 | 1012.5 |
| 20260509114551 | 67 | 17 | 0.0 | 0.0 | 0.00 | 0.11 | 0.03 | 94 | 1011.7 |
| 20260509114533 | 67 | 0 | 0.0 | 0.0 | 0.00 | 0.11 | 0.03 | 94 | 1012.4 |
| 20260509113050 | 67 | 11 | 0.0 | 0.0 | 0.00 | 0.11 | 0.03 | 94 | 1011.5 |
| 20260509113032 | 67 | 0 | 0.0 | 0.0 | 0.00 | 0.11 | 0.03 | 94 | 1012.4 |
| 20260509111553 | 67 | 14 | 0.0 | 0.0 | 0.00 | 0.11 | 0.03 | 94 | 1011.4 |
| 20260509111531 | 67 | 0 | 0.0 | 0.0 | 0.00 | 0.11 | 0.03 | 94 | 1012.1 |
| 20260509110049 | 67 | 15 | 0.0 | 0.0 | 0.00 | 0.11 | 0.03 | 94 | 1011.5 |
| 20260509110035 | 67 | 0 | 0.0 | 0.0 | 0.00 | 0.11 | 0.03 | 93 | 1012.3 |
| 20260509104553 | 67 | 15 | 0.0 | 0.0 | 0.00 | 0.11 | 0.03 | 94 | 1011.1 |
| 20260509104533 | 67 | 0 | 0.0 | 0.0 | 0.00 | 0.11 | 0.03 | 93 | 1011.8 |
| 20260509103052 | 67 | 17 | 0.0 | 0.0 | 0.00 | 0.11 | 0.03 | 93 | 1010.7 |
| 20260509103034 | 67 | 0 | 0.0 | 0.0 | 0.00 | 0.11 | 0.03 | 93 | 1011.6 |
| 20260509101545 | 67 | 17 | 0.0 | 0.0 | 0.00 | 0.11 | 0.03 | 93 | 1010.7 |
| 20260509101543 | 67 | 0 | 0.0 | 0.0 | 0.00 | 0.11 | 0.03 | 93 | 1011.5 |
| 20260509100044 | 67 | 19 | 0.0 | 0.0 | 0.00 | 0.11 | 0.03 | 93 | 1010.7 |
| 20260509100030 | 67 | 0 | 0.0 | 0.0 | 0.00 | 0.11 | 0.03 | 93 | 1011.5 |
| 20260509094554 | 67 | 18 | 0.0 | 0.0 | 0.00 | 0.11 | 0.03 | 93 | 1010.7 |
| 20260509094531 | 67 | 0 | 0.0 | 0.0 | 0.00 | 0.11 | 0.03 | 93 | 1011.5 |
| 20260509093043 | 67 | 19 | 0.0 | 0.0 | 0.00 | 0.11 | 0.03 | 93 | 1010.6 |
| 20260509093030 | 67 | 0 | 0.0 | 0.0 | 0.00 | 0.11 | 0.03 | 92 | 1011.4 |
| 20260509091549 | 67 | 22 | 0.0 | 0.0 | 0.00 | 0.11 | 0.03 | 92 | 1010.7 |
| 20260509091534 | 67 | 0 | 0.0 | 0.0 | 0.00 | 0.11 | 0.03 | 92 | 1011.5 |
| 20260509090052 | 67 | 22 | 0.0 | 3.0 | 0.00 | 0.11 | 0.03 | 92 | 1010.9 |
| 20260509090030 | 67 | 0 | 0.0 | 3.0 | 0.00 | 0.11 | 0.03 | 92 | 1011.9 |
| 20260509084542 | 67 | 23 | 0.0 | 0.0 | 0.00 | 0.11 | 0.03 | 92 | 1011.2 |
| 20260509084531 | 67 | 0 | 0.0 | 0.0 | 0.00 | 0.11 | 0.03 | 92 | 1012.1 |
| 20260509083042 | 67 | 22 | 0.0 | 0.0 | 0.00 | 0.11 | 0.03 | 92 | 1011.0 |
| 20260509083033 | 67 | 0 | 0.0 | 0.0 | 0.00 | 0.11 | 0.03 | 91 | 1011.9 |
| 20260509081538 | 67 | 22 | 0.0 | 0.0 | 0.00 | 0.11 | 0.03 | 92 | 1010.8 |
| 20260509081528 | 67 | 0 | 0.0 | 0.0 | 0.00 | 0.11 | 0.03 | 91 | 1011.6 |
| 20260509080045 | 67 | 21 | 0.0 | 3.0 | 0.00 | 0.11 | 0.03 | 91 | 1011.4 |
| 20260509080033 | 67 | 0 | 0.0 | 3.0 | 0.00 | 0.11 | 0.03 | 91 | 1012.3 |
| 20260509074547 | 66 | 22 | 0.0 | 0.0 | 0.00 | 0.11 | 0.03 | 91 | 1011.2 |
| 20260509074530 | 66 | 0 | 0.0 | 0.0 | 0.00 | 0.11 | 0.03 | 91 | 1012.0 |
| 20260509073049 | 66 | 0 | 0.0 | 0.0 | 0.00 | 0.11 | 0.03 | 90 | 1012.2 |
| 20260509073045 | 66 | 22 | 0.0 | 0.0 | 0.00 | 0.11 | 0.03 | 90 | 1011.3 |
| 20260509071535 | 66 | 23 | 0.0 | 0.0 | 0.00 | 0.11 | 0.03 | 90 | 1011.3 |
| 20260509071532 | 66 | 0 | 0.0 | 0.0 | 0.00 | 0.11 | 0.03 | 90 | 1012.2 |
| 20260509070032 | 66 | 22 | 0.0 | 0.0 | 0.00 | 0.11 | 0.03 | 90 | 1011.3 |
| 20260509070029 | 66 | 0 | 0.0 | 0.0 | 0.00 | 0.11 | 0.03 | 90 | 1012.1 |
| 20260509064530 | 66 | 23 | 0.0 | 0.0 | 0.00 | 0.11 | 0.03 | 90 | 1011.7 |
| 20260509064528 | 66 | 0 | 0.0 | 0.0 | 0.00 | 0.11 | 0.03 | 89 | 1012.5 |
| 20260509063031 | 66 | 23 | 0.0 | 0.0 | 0.00 | 0.11 | 0.03 | 90 | 1012.1 |
| 20260509061529 | 66 | 0 | 0.0 | 1.0 | 0.00 | 0.11 | 0.03 | 89 | 1013.1 |
| 20260509060037 | 66 | 25 | 2.0 | 3.0 | 0.00 | 0.11 | 0.03 | 89 | 1013.1 |
| 20260509060030 | 66 | 24 | 2.0 | 4.0 | 0.00 | 0.11 | 0.03 | 89 | 1012.3 |
| 20260509054528 | 66 | 0 | 0.0 | 0.0 | 0.01 | 0.11 | 0.03 | 88 | 1012.5 |
| 20260509054526 | 66 | 105 | 0.0 | 0.0 | 0.01 | 0.11 | 0.03 | 89 | 1011.8 |
| 20260509053034 | 66 | 101 | 0.0 | 0.0 | 0.01 | 0.11 | 0.03 | 88 | 1012.1 |
| 20260509051529 | 66 | 0 | 0.0 | 0.0 | 0.01 | 0.11 | 0.03 | 88 | 1013.5 |
| 20260509051522 | 66 | 95 | 0.0 | 0.0 | 0.01 | 0.11 | 0.03 | 88 | 1012.8 |
| 20260509050031 | 66 | 0 | 0.0 | 0.0 | 0.03 | 0.11 | 0.03 | 87 | 1013.5 |
| 20260509050022 | 66 | 108 | 0.0 | 0.0 | 0.03 | 0.11 | 0.03 | 88 | 1012.9 |
| 20260509044535 | 66 | 0 | 0.0 | 0.0 | 0.03 | 0.10 | 0.02 | 87 | 1013.3 |
| 20260509044520 | 66 | 19 | 0.0 | 0.0 | 0.03 | 0.10 | 0.02 | 88 | 1012.5 |
| 20260509043037 | 66 | 19 | 0.0 | 0.0 | 0.05 | 0.10 | 0.02 | 87 | 1013.1 |
| 20260509043035 | 66 | 0 | 0.0 | 0.0 | 0.05 | 0.10 | 0.02 | 87 | 1013.8 |
| 20260509041528 | 66 | 0 | 0.0 | 0.0 | 0.06 | 0.10 | 0.02 | 87 | 1013.7 |
| 20260509041517 | 66 | 17 | 0.0 | 0.0 | 0.06 | 0.10 | 0.02 | 87 | 1012.9 |
| 20260509040029 | 66 | 0 | 0.0 | 0.0 | 0.06 | 0.08 | 0.00 | 86 | 1013.6 |
| 20260509040013 | 66 | 17 | 0.0 | 0.0 | 0.06 | 0.08 | 0.08 | 86 | 1012.9 |
| 20260509034541 | 66 | 0 | 0.0 | 0.0 | 0.07 | 0.07 | 0.07 | 85 | 1014.6 |
| 20260509034513 | 66 | 17 | 0.0 | 0.0 | 0.07 | 0.07 | 0.07 | 85 | 1013.9 |
| 20260509033030 | 67 | 0 | 0.0 | 4.0 | 0.05 | 0.05 | 0.05 | 84 | 1014.8 |
| 20260509033012 | 67 | 16 | 0.0 | 4.0 | 0.05 | 0.05 | 0.05 | 85 | 1014.1 |
| 20260509031532 | 67 | 0 | 0.0 | 0.0 | 0.04 | 0.04 | 0.04 | 84 | 1014.5 |
| 20260509031513 | 67 | 16 | 0.0 | 0.0 | 0.04 | 0.04 | 0.04 | 84 | 1013.7 |
| 20260509030028 | 68 | 0 | 0.0 | 1.0 | 0.02 | 0.02 | 0.02 | 82 | 1015.5 |
| 20260509030010 | 68 | 17 | 0.0 | 1.0 | 0.02 | 0.02 | 0.02 | 83 | 1014.6 |
| 20260509024529 | 68 | 0 | 0.0 | 0.0 | 0.00 | 0.00 | 0.00 | 81 | 1015.5 |
| 20260509024510 | 68 | 10 | 0.0 | 0.0 | 0.00 | 0.00 | 0.00 | 82 | 1014.8 |
| 20260509023032 | 68 | 0 | 0.0 | 0.0 | 0.00 | 0.00 | 0.00 | 80 | 1015.9 |
| 20260509023009 | 68 | 9 | 0.0 | 0.0 | 0.00 | 0.00 | 0.00 | 80 | 1015.0 |
| 20260509021534 | 68 | 0 | 0.0 | 0.0 | 0.00 | 0.00 | 0.00 | 79 | 1015.8 |
| 20260509021509 | 68 | 9 | 0.0 | 0.0 | 0.00 | 0.00 | 0.00 | 79 | 1015.0 |
| 20260509020028 | 68 | 0 | 0.0 | 0.0 | 0.00 | 0.00 | 0.00 | 77 | 1015.5 |
| 20260509020009 | 68 | 9 | 0.0 | 0.0 | 0.00 | 0.00 | 0.00 | 78 | 1014.7 |
| 20260509014529 | 68 | 0 | 0.0 | 0.0 | 0.00 | 0.00 | 0.00 | 77 | 1015.2 |
| 20260509014518 | 68 | 10 | 0.0 | 0.0 | 0.00 | 0.00 | 0.00 | 77 | 1014.5 |
| 20260509013030 | 68 | 0 | 0.0 | 0.0 | 0.00 | 0.00 | 0.00 | 77 | 1014.6 |
| 20260509013007 | 68 | 11 | 0.0 | 0.0 | 0.00 | 0.00 | 0.00 | 77 | 1013.7 |
| 20260509011528 | 68 | 0 | 0.0 | 0.0 | 0.00 | 0.00 | 0.00 | 76 | 1014.3 |
| 20260509011508 | 68 | 12 | 0.0 | 0.0 | 0.00 | 0.00 | 0.00 | 76 | 1013.5 |
| 20260509010035 | 68 | 0 | 0.0 | 0.0 | 0.00 | 0.00 | 0.00 | 74 | 1014.4 |
| 20260509010006 | 68 | 15 | 0.0 | 0.0 | 0.00 | 0.00 | 0.00 | 74 | 1013.7 |
| 20260509004530 | 69 | 0 | 0.0 | 0.0 | 0.00 | 0.00 | 0.00 | 73 | 1014.4 |
| 20260509004507 | 69 | 14 | 0.0 | 0.0 | 0.00 | 0.00 | 0.00 | 74 | 1013.6 |
| 20260509003032 | 69 | 0 | 0.0 | 0.0 | 0.00 | 0.00 | 0.00 | 73 | 1014.3 |
| 20260509003006 | 69 | 9 | 0.0 | 0.0 | 0.00 | 0.00 | 0.00 | 74 | 1013.5 |
| 20260509001529 | 69 | 0 | 0.0 | 1.0 | 0.00 | 0.00 | 0.00 | 72 | 1014.2 |
| 20260509001508 | 69 | 9 | 0.0 | 1.0 | 0.00 | 0.00 | 0.00 | 72 | 1013.4 |
| 20260509000029 | 69 | 0 | 0.0 | 0.0 | 0.00 | 0.00 | 0.00 | 72 | 1013.8 |
| 20260509000004 | 69 | 9 | 0.0 | 0.0 | 0.00 | 0.00 | 0.00 | 72 | 1013.1 |
| 20260508234530 | 69 | 0 | 0.0 | 0.0 | 0.00 | 0.00 | 0.00 | 71 | 1014.2 |
| 20260508234504 | 69 | 9 | 0.0 | 0.0 | 0.00 | 0.00 | 0.00 | 72 | 1013.3 |
| 20260508233030 | 69 | 0 | 0.0 | 0.0 | 0.00 | 0.00 | 0.00 | 71 | 1014.0 |
| 20260508233003 | 69 | 9 | 0.0 | 0.0 | 0.00 | 0.00 | 0.00 | 72 | 1013.2 |
| 20260508231529 | 69 | 0 | 0.0 | 1.0 | 0.00 | 0.00 | 0.00 | 70 | 1013.6 |
| 20260508231503 | 69 | 9 | 0.0 | 0.0 | 0.00 | 0.00 | 0.00 | 71 | 1012.8 |
| 20260508230029 | 69 | 0 | 0.0 | 2.0 | 0.00 | 0.00 | 0.00 | 70 | 1013.7 |
| 20260508230004 | 69 | 5 | 0.0 | 2.0 | 0.00 | 0.00 | 0.00 | 71 | 1012.9 |
| 20260508224530 | 69 | 0 | 0.0 | 1.0 | 0.00 | 0.00 | 0.00 | 70 | 1013.5 |
| 20260508224512 | 69 | 9 | 0.0 | 1.0 | 0.00 | 0.00 | 0.00 | 70 | 1012.7 |